Weather History for Haleyville, AL

Change the Weather History Date:

Thursday, May 15, 2014

  Actual Average (KJFX) Record (KJFX)
Temperature  
Mean Temperature 54 °F -  
Max Temperature 61 °F 79 °F 90 °F (1962)
Min Temperature 46 °F 53 °F 43 °F (1966)
Degree Days  
Heating Degree Days 12    
Growing Degree Days 4 (Base 50)    
Moisture  
Dew Point 46 °F    
Average Humidity 85    
Maximum Humidity 100    
Minimum Humidity 52    
Precipitation  
Precipitation 0.00 in - - ()
Sea Level Pressure  
Sea Level Pressure 30.12 in    
Wind  
Wind Speed 7 mph (NW)    
Max Wind Speed 15 mph    
Max Gust Speed 21 mph    
Visibility 9 miles    
Events Rain    
Averages and records for this station are not official NWS values.
T = Trace of Precipitation, MM = Missing Value Source: NWS Daily Summary

Daily Weather History Graph

Daily Weather History Graph

Search for Another Location

Airport:

Trip Planner

Search our weather history database for the weather conditions in past years. The results will help you decide how hot, cold, wet, or windy it might be!

Date:

Astronomy

May. 15, 2014 Rise Set
Actual Time 5:48 AM CDT 7:45 PM CDT
Civil Twilight 5:20 AM CDT 8:13 PM CDT
Nautical Twilight 4:46 AM CDT 8:47 PM CDT
Astronomical Twilight 4:11 AM CDT 9:23 PM CDT
Moon 8:53 PM CDT (5/15) 6:34 AM CDT (5/15)
Length of Visible Light 14h 52m
Length of Day
13h 57m
Full, 99% of the Moon is Illuminated
May 15
Full
May 21
Last Quarter
May 28
New
Jun 5
First Quarter
Jun 12
Full

Hourly Weather History & Observations

Time (CDT) Temp. Windchill Dew Point Humidity Pressure Visibility Wind Dir Wind Speed Gust Speed Precip Events Conditions
12:30 AM 51.8 °F - 48.2 °F 88% 30.04 in 8.0 mi Variable 5.8 mph - N/A   Overcast
12:56 AM 50.0 °F - 48.9 °F 96% 30.08 in 7.0 mi NW 8.1 mph - N/A   Overcast
1:08 AM 50.0 °F - 48.2 °F 94% 30.04 in 10.0 mi NW 8.1 mph - N/A   Overcast
1:56 AM 50.0 °F - 47.8 °F 92% 30.06 in 10.0 mi NW 8.1 mph - N/A   Overcast
2:16 AM 50.0 °F - 48.2 °F 94% 30.03 in 6.0 mi Variable 5.8 mph - N/A   Overcast
2:32 AM 48.2 °F - 48.2 °F 100% 30.03 in 5.0 mi Variable 6.9 mph - 0.00 in Rain Light Rain
2:44 AM 48.2 °F - 48.2 °F 100% 30.04 in 10.0 mi NW 8.1 mph - 0.00 in   Overcast
2:56 AM 48.9 °F - 46.9 °F 93% 30.07 in 10.0 mi NW 10.4 mph - 0.00 in   Overcast
3:56 AM 48.9 °F - 46.9 °F 93% 30.08 in 10.0 mi Variable 5.8 mph - N/A   Overcast
4:23 AM 48.2 °F - 46.4 °F 93% 30.04 in 10.0 mi NW 6.9 mph - N/A   Overcast
4:28 AM 48.2 °F - 46.4 °F 93% 30.04 in 10.0 mi NW 8.1 mph - N/A   Overcast
4:45 AM 48.2 °F - 46.4 °F 93% 30.05 in 10.0 mi NW 9.2 mph - N/A   Overcast
4:56 AM 47.8 °F - 45.9 °F 93% 30.09 in 10.0 mi Variable 5.8 mph - N/A   Overcast
5:37 AM 46.4 °F 43.5 °F 46.4 °F 100% 30.07 in 10.0 mi NW 5.8 mph - N/A   Mostly Cloudy
5:45 AM 46.4 °F 44.3 °F 46.4 °F 100% 30.07 in 10.0 mi Variable 4.6 mph - N/A   Mostly Cloudy
5:56 AM 47.8 °F - 45.9 °F 93% 30.11 in 10.0 mi Variable 4.6 mph - N/A   Overcast
6:56 AM 47.8 °F - 45.9 °F 93% 30.13 in 10.0 mi NNW 5.8 mph - N/A   Overcast
7:24 AM 48.2 °F - 46.4 °F 93% 30.11 in 10.0 mi NW 8.1 mph - N/A   Overcast
7:56 AM 47.8 °F - 45.9 °F 93% 30.14 in 6.0 mi NW 6.9 mph - N/A   Overcast
8:25 AM 48.2 °F - 46.4 °F 93% 30.12 in 10.0 mi NW 6.9 mph - N/A   Overcast
8:36 AM 48.2 °F - 44.6 °F 87% 30.13 in 8.0 mi NW 10.4 mph 16.1 mph 0.00 in Rain Light Rain
8:44 AM 48.2 °F - 44.6 °F 87% 30.13 in 5.0 mi NW 8.1 mph 16.1 mph 0.00 in Rain Light Rain
8:56 AM 47.8 °F - 45.0 °F 90% 30.17 in 10.0 mi NNW 10.4 mph 19.6 mph 0.00 in   Overcast
9:20 AM 48.2 °F - 44.6 °F 87% 30.14 in 10.0 mi NW 8.1 mph - 0.00 in   Overcast
9:56 AM 48.9 °F - 45.9 °F 89% 30.18 in 10.0 mi NW 8.1 mph - 0.00 in   Overcast
10:14 AM 51.8 °F - 44.6 °F 76% 30.15 in 10.0 mi NW 9.2 mph 18.4 mph N/A   Mostly Cloudy
10:46 AM 51.8 °F - 44.6 °F 76% 30.16 in 10.0 mi NW 9.2 mph 19.6 mph N/A   Mostly Cloudy
10:56 AM 52.9 °F - 45.9 °F 77% 30.19 in 10.0 mi NW 11.5 mph - N/A   Overcast
11:42 AM 51.8 °F - 44.6 °F 76% 30.17 in 10.0 mi NW 11.5 mph - N/A   Overcast
11:56 AM 54.9 °F - 45.0 °F 69% 30.21 in 10.0 mi NNW 15.0 mph 20.7 mph N/A   Mostly Cloudy
12:04 PM 53.6 °F - 44.6 °F 72% 30.17 in 10.0 mi NNW 11.5 mph 20.7 mph N/A   Overcast
12:56 PM 56.8 °F - 45.0 °F 64% 30.21 in 10.0 mi NNW 13.8 mph 18.4 mph N/A   Mostly Cloudy
1:56 PM 56.8 °F - 43.9 °F 62% 30.20 in 10.0 mi NW 13.8 mph - N/A   Mostly Cloudy
2:56 PM 59.9 °F - 43.9 °F 55% 30.18 in 10.0 mi NNW 9.2 mph - N/A   Scattered Clouds
3:56 PM 59.0 °F - 43.9 °F 57% 30.17 in 10.0 mi NNW 9.2 mph - N/A   Scattered Clouds
4:56 PM 61.9 °F - 43.9 °F 52% 30.16 in 10.0 mi WNW 8.1 mph - N/A   Partly Cloudy
5:56 PM 59.9 °F - 43.9 °F 55% 30.15 in 10.0 mi North 6.9 mph - N/A   Partly Cloudy
6:56 PM 59.0 °F - 45.0 °F 60% 30.15 in 10.0 mi NNW 3.5 mph - N/A   Clear
7:56 PM 52.9 °F - 47.8 °F 83% 30.17 in 10.0 mi Calm Calm - N/A   Clear
8:56 PM 48.9 °F - 47.8 °F 96% 30.18 in 10.0 mi Calm Calm - N/A   Clear
9:56 PM 47.8 °F - 47.8 °F 100% 30.19 in 10.0 mi Calm Calm - N/A   Clear
10:56 PM 46.9 °F - 46.9 °F 100% 30.18 in 10.0 mi WSW 3.5 mph - N/A   Partly Cloudy
11:56 PM 46.9 °F - 46.9 °F 100% 30.18 in 10.0 mi SSW 3.5 mph - N/A   Clear